Wetbulb
72.33 73.95 75.28 75.56 76.73 77.55 77.70 78.42 78.75 78.65 78.52 78.62 78.68 78.57 78.34 78.51 78.76 78.60 78.51 78.06 78.10 78.05 77.34 77.78 76.98 76.91 76.87 77.41 77.89 76.59 76.70 76.58 76.99 77.45 77.29 77.12 76.56 76.36 76.25 75.99 77.84 75.31 76.48
72.98 74.73 75.53 75.97 76.52 76.85 77.57 78.78 78.50 78.77 78.57 78.65 78.72 78.50 78.16 78.47 78.18 78.45 78.41 78.34 77.82 77.85 77.75 77.92 77.54 77.43 77.19 76.91 76.89 77.41 76.93 77.26 76.86 77.06 77.08 76.78 76.41 76.31 75.85 76.37 77.70 75.50 75.65
74.17 74.65 75.58 76.30 76.41 75.70 76.52 76.81 77.84 78.65 78.58 78.27 78.32 78.31 77.96 78.60 78.44 77.85 77.82 77.94 77.79 77.49 77.63 77.37 76.72 76.31 75.92 75.56 75.64 75.72 76.36 76.25 76.17 76.94 77.73 74.79 74.68 75.83 75.99 75.63 76.24 76.46 75.99
75.65 76.22 75.96 76.64 76.23 76.51 76.87 76.12 78.04 78.36 78.68 78.50 78.31 78.10 78.01 77.71 78.21 78.16 78.09 77.54 78.08 77.64 77.11 76.36 75.75 76.34 76.58 76.39 76.28 76.43 76.81 75.85 74.84 74.84 75.78 74.62 76.16 75.94 75.82 74.12 74.20 74.83 75.69
75.57 76.28 76.74 76.96 76.66 76.03 76.07 77.01 78.60 79.05 78.60 78.21 78.14 78.05 78.11 78.23 78.21 77.85 77.81 77.59 77.41 77.60 76.06 75.84 76.45 77.58 76.99 77.00 76.62 76.35 76.44 75.66 76.17 76.57 74.73 74.55 75.12 76.36 76.49 75.76 74.31 74.01 73.51
76.37 75.98 76.77 76.89 76.90 76.72 76.70 78.82 78.72 78.54 78.58 77.94 77.53 77.69 77.57 77.65 77.80 77.69 77.83 77.10 76.95 75.92 76.14 75.72 76.53 76.95 76.55 76.46 76.56 76.32 75.50 75.61 76.22 73.43 73.71 74.87 75.39 74.89 74.98 76.08 75.63 73.71 74.03
75.00 76.23 76.78 77.17 76.62 77.37 77.16 78.06 78.59 78.70 78.10 77.93 77.67 77.42 77.64 77.86 77.58 78.22 77.82 77.71 77.14 76.59 76.75 76.53 76.34 76.53 76.71 76.77 75.86 75.62 75.81 76.53 76.66 73.71 73.58 75.53 75.82 75.63 75.38 75.74 76.24 75.41 73.81
75.46 75.51 76.40 77.08 77.01 76.70 76.88 77.57 78.31 78.27 77.60 77.76 77.93 77.75 77.42 77.28 77.41 77.03 77.20 77.72 77.33 77.17 77.33 76.87 76.75 76.53 76.17 75.53 75.31 75.28 76.36 76.64 75.46 73.39 73.67 75.44 74.95 74.86 75.08 75.53 75.67 75.87 75.53
76.23 76.49 76.40 76.55 76.82 76.77 76.43 76.46 77.59 77.77 77.31 77.23 77.83 77.80 77.74 77.39 77.20 77.49 77.33 77.25 77.27 77.22 76.95 76.83 76.36 75.73 75.28 75.45 75.31 74.64 75.94 77.22 76.25 73.01 73.68 74.79 75.77 75.59 75.00 74.99 74.63 74.90 74.97
76.29 76.92 76.60 77.05 76.87 76.87 76.71 77.07 77.48 77.90 77.14 77.12 77.60 77.41 76.92 76.81 76.40 77.86 77.56 77.38 76.73 76.61 76.56 75.81 75.64 75.48 75.64 75.58 75.41 74.92 75.67 76.73 76.45 73.87 73.98 74.97 76.27 76.64 75.89 74.36 74.11 73.95 74.30
75.45 76.42 77.03 77.00 78.12 78.39 77.75 77.28 77.46 77.74 77.39 77.09 76.97 76.89 76.77 76.85 76.80 77.59 77.20 76.81 76.28 75.72 75.83 76.20 76.00 75.66 75.44 75.91 76.32 75.83 75.64 75.72 75.03 74.22 75.50 76.51 76.42 76.07 75.30 75.44 74.32 73.50 73.04
74.75 75.31 76.60 77.40 77.79 78.07 77.05 77.78 77.63 77.93 76.48 76.01 75.53 77.12 76.24 76.56 77.39 76.35 77.35 76.40 76.36 75.79 76.45 76.23 76.31 76.44 76.49 73.80 76.00 76.58 74.25 75.08 74.00 75.04 76.20 76.82 76.31 76.05 75.81 75.62 74.96 75.08 74.51
74.96 75.56 77.02 77.53 78.56 78.05 77.06 77.03 77.71 76.57 75.63 75.48 76.97 77.72 76.66 76.49 76.35 74.75 76.69 76.10 76.87 76.98 76.58 76.86 76.76 76.17 74.62 74.34 73.96 74.17 74.87 74.76 73.98 74.63 76.33 77.03 76.78 75.98 76.31 76.48 75.88 74.84 74.72
74.41 75.34 76.05 77.76 77.69 77.60 76.79 76.34 76.20 75.60 75.13 75.08 76.17 77.82 77.18 75.98 75.67 75.76 74.79 75.47 76.47 75.27 76.56 75.49 75.00 76.06 75.18 75.31 74.12 74.01 73.85 74.02 74.34 75.12 76.43 77.47 76.99 76.51 76.47 76.79 76.65 75.94 75.14
73.92 75.23 76.32 77.62 78.43 78.55 77.92 76.77 77.10 76.13 75.65 76.16 76.17 77.34 76.59 75.43 75.84 75.90 75.62 75.38 75.46 76.13 74.65 75.55 75.53 75.49 75.60 74.85 74.85 73.79 73.73 73.91 74.26 74.99 75.46 78.57 77.44 76.92 76.47 77.00 77.02 76.67 76.17
74.36 75.34 76.34 76.84 77.85 78.46 77.79 78.97 76.97 76.76 77.62 76.42 76.53 76.54 78.14 76.50 76.58 75.76 76.03 75.57 75.57 75.24 77.16 76.59 76.23 75.72 75.26 74.83 74.39 74.66 73.57 73.68 74.04 74.68 75.47 76.11 77.84 77.25 76.92 77.15 77.29 77.12 76.66
74.61 75.64 76.17 76.85 77.33 77.73 78.14 77.60 77.19 76.43 75.86 76.44 75.84 77.48 77.67 78.41 78.37 78.13 75.80 75.54 75.46 76.27 77.95 77.20 77.24 77.79 75.75 74.66 74.61 74.80 73.65 73.34 72.54 73.93 74.99 75.69 76.56 77.18 77.31 77.84 77.84 77.93 77.84
75.42 76.00 76.65 76.50 77.13 77.59 77.96 77.91 76.74 76.18 75.95 75.77 75.71 76.30 77.94 77.31 77.98 77.97 75.55 74.86 75.69 76.80 75.62 75.61 75.48 75.25 74.95 75.05 74.62 74.19 74.57 73.78 73.71 73.65 74.56 75.43 75.69 75.70 77.50 77.97 77.82 77.62 77.69
76.19 76.89 77.11 77.43 77.02 77.63 78.21 77.88 77.92 77.93 76.49 76.07 75.83 75.70 77.71 77.04 77.05 77.18 75.46 75.39 78.52 75.07 75.46 74.24 73.81 75.82 74.40 74.63 74.09 74.41 74.58 73.75 73.80 73.15 74.15 75.79 76.32 75.59 75.98 77.44 77.44 77.22 77.40
76.65 77.52 77.90 78.16 78.33 78.62 78.14 78.33 77.27 77.02 76.83 77.11 76.62 76.38 77.39 76.36 76.74 77.22 75.79 77.24 77.68 75.22 74.50 74.63 74.78 75.36 75.33 74.04 73.34 73.35 74.43 74.21 74.42 73.61 73.46 73.74 74.59 75.61 76.66 77.50 77.44 76.98 76.99
76.92 77.57 78.36 78.30 79.61 78.48 76.40 75.67 75.77 75.76 76.75 76.80 77.75 78.34 78.06 77.58 77.82 78.23 76.60 76.50 77.04 76.46 77.09 78.40 78.07 76.19 74.55 74.88 74.84 72.52 74.16 74.50 74.21 74.09 74.39 73.79 74.16 74.85 75.74 76.44 77.48 76.49 76.87
76.55 77.80 78.62 78.90 79.96 78.73 77.84 78.12 78.40 77.45 77.14 78.06 78.25 78.68 79.54 78.29 78.43 78.23 78.37 76.28 74.96 71.84 72.81 75.08 76.18 74.44 75.28 76.11 72.09 71.68 68.30 70.65 73.46 74.38 75.04 74.51 74.26 74.13 73.94 75.08 75.80 77.02 77.06
76.38 77.64 78.33 79.35 79.63 79.78 79.74 78.73 78.40 79.01 77.79 76.43 77.01 77.02 78.32 78.42 78.62 78.82 78.15 77.85 77.82 76.43 73.78 75.19 74.52 72.94 72.97 75.24 75.70 72.23 68.21 66.73 70.04 72.22 74.75 73.50 75.69 73.95 74.20 75.12 76.32 76.89 77.66
75.97 77.49 78.92 79.48 79.75 79.81 80.31 79.46 79.96 76.58 75.54 75.76 76.39 76.65 77.49 78.23 77.45 78.30 78.75 78.66 78.36 76.75 77.29 75.31 76.11 74.16 72.04 69.92 73.72 74.61 74.50 73.03 68.76 67.55 71.49 73.44 75.83 75.46 76.06 74.86 74.53 76.36 77.54
74.67 75.64 77.72 79.26 79.84 80.25 80.20 79.58 77.92 78.04 76.34 75.74 74.97 77.46 79.84 78.72 78.11 77.82 78.76 77.95 78.09 77.75 77.83 77.65 77.24 76.75 75.36 73.43 70.30 70.54 74.26 74.11 74.41 70.00 67.74 69.75 71.98 73.52 74.47 75.84 74.65 74.08 76.28
74.15 74.74 76.12 78.59 79.48 80.06 79.59 79.41 78.74 77.45 76.80 75.16 74.44 72.39 70.33 69.54 69.67 72.97 73.78 75.27 76.97 76.86 76.52 76.39 77.24 76.89 76.39 75.67 74.68 74.37 69.53 70.04 70.88 71.16 69.44 71.28 70.73 72.60 74.08 73.42 75.12 75.41 75.60
MSLP
1014.94 1015.12 1015.12 1015.24 1015.27 1015.27 1015.48 1015.61 1015.70 1015.91 1016.09 1016.29 1016.48 1016.54 1016.59 1016.65 1016.71 1016.83 1016.97 1017.08 1017.16 1017.16 1017.35 1017.42 1017.64 1017.79 1017.77 1017.80 1017.88 1018.04 1018.18 1018.36 1018.43 1018.35 1018.39 1018.51 1018.65 1018.65 1018.60 1018.49 1018.16 1018.51 1019.14
1014.74 1015.14 1015.28 1015.32 1015.59 1015.87 1015.78 1015.80 1016.07 1016.27 1016.46 1016.65 1016.81 1016.89 1017.03 1016.97 1017.07 1017.18 1017.34 1017.36 1017.53 1017.62 1017.65 1017.80 1017.92 1018.08 1018.16 1018.30 1018.35 1018.39 1018.42 1018.61 1018.67 1018.57 1018.55 1018.64 1018.89 1019.00 1019.06 1018.89 1018.65 1019.22 1019.39
1014.72 1014.93 1015.39 1015.72 1015.89 1016.30 1016.22 1016.28 1016.42 1016.62 1016.84 1017.04 1017.26 1017.32 1017.30 1017.36 1017.42 1017.64 1017.65 1017.69 1017.82 1018.07 1018.10 1018.21 1018.30 1018.44 1018.62 1018.73 1018.74 1018.83 1018.79 1018.83 1018.74 1018.66 1018.30 1017.75 1018.73 1019.22 1019.33 1019.35 1019.54 1019.70 1019.71
1013.77 1014.22 1014.76 1015.92 1016.22 1016.42 1016.62 1016.63 1016.80 1016.95 1017.10 1017.30 1017.51 1017.60 1017.65 1017.72 1017.98 1017.93 1018.03 1018.14 1018.24 1018.33 1018.49 1018.60 1018.65 1018.77 1018.86 1019.02 1019.01 1019.09 1019.15 1018.92 1018.86 1018.79 1018.23 1017.35 1018.28 1019.53 1019.61 1019.72 1019.86 1020.06 1020.11
1013.45 1013.76 1015.06 1016.07 1016.35 1016.70 1016.92 1017.06 1017.19 1017.38 1017.53 1017.72 1017.80 1017.89 1017.99 1018.01 1018.10 1018.29 1018.46 1018.41 1018.56 1018.68 1018.80 1018.87 1018.87 1019.01 1019.12 1019.27 1019.39 1019.52 1019.34 1019.02 1018.73 1018.35 1017.51 1017.71 1018.30 1019.78 1019.87 1019.91 1020.09 1020.22 1020.30
1013.36 1013.95 1015.55 1016.11 1016.49 1016.85 1017.14 1017.34 1017.51 1017.65 1017.86 1017.96 1018.09 1018.26 1018.34 1018.58 1018.39 1018.59 1018.70 1018.85 1018.89 1019.01 1019.09 1019.12 1019.17 1019.27 1019.44 1019.56 1019.61 1019.62 1019.54 1019.26 1018.97 1018.01 1018.27 1018.38 1018.84 1020.01 1020.17 1020.12 1020.20 1020.38 1020.53
1014.19 1014.19 1015.65 1016.47 1016.76 1016.93 1017.25 1017.55 1017.72 1017.87 1018.07 1018.22 1018.21 1018.44 1018.59 1018.68 1018.65 1018.81 1018.92 1019.00 1019.07 1019.22 1019.29 1019.29 1019.40 1019.52 1019.60 1019.66 1019.75 1019.72 1019.60 1019.19 1018.53 1017.83 1018.28 1018.18 1019.61 1020.21 1020.32 1020.40 1020.44 1020.55 1020.68
1014.09 1014.60 1015.80 1016.76 1017.10 1017.46 1017.55 1017.68 1017.90 1018.07 1018.28 1018.35 1018.47 1018.59 1018.79 1018.84 1018.90 1019.03 1019.09 1019.20 1019.30 1019.37 1019.39 1019.47 1019.60 1019.72 1019.74 1019.76 1019.80 1019.73 1019.59 1019.23 1018.20 1018.04 1018.36 1018.74 1020.03 1020.40 1020.53 1020.62 1020.65 1020.66 1020.74
1014.00 1014.81 1015.49 1016.30 1017.07 1017.52 1017.83 1018.03 1018.22 1018.40 1018.56 1018.56 1018.72 1018.77 1018.88 1018.92 1019.01 1019.07 1019.14 1019.28 1019.43 1019.47 1019.54 1019.61 1019.74 1019.80 1019.85 1019.80 1019.81 1019.71 1019.45 1018.89 1018.39 1017.89 1017.67 1018.65 1019.95 1020.30 1020.56 1020.68 1020.78 1020.71 1020.74
1014.26 1014.48 1015.49 1016.06 1016.63 1017.06 1017.65 1018.16 1018.39 1018.45 1018.57 1018.76 1018.87 1018.98 1018.93 1018.83 1018.84 1018.97 1019.16 1019.34 1019.42 1019.47 1019.57 1019.67 1019.77 1019.78 1019.83 1019.83 1019.79 1019.64 1019.22 1018.92 1018.26 1017.37 1017.67 1018.92 1019.76 1020.15 1020.36 1020.59 1020.71 1020.77 1020.77
1014.65 1014.91 1015.24 1016.01 1016.78 1017.18 1017.30 1017.97 1018.39 1018.51 1018.61 1018.72 1018.81 1018.85 1018.63 1017.94 1017.81 1018.49 1018.95 1019.21 1019.35 1019.40 1019.42 1019.48 1019.59 1019.66 1019.69 1019.54 1019.49 1019.35 1019.07 1018.16 1018.21 1016.81 1017.79 1018.91 1019.49 1019.94 1020.21 1020.33 1020.53 1020.66 1020.71
1014.28 1015.01 1015.56 1015.81 1016.17 1016.51 1016.62 1017.80 1017.77 1017.88 1018.03 1018.12 1018.12 1018.36 1018.05 1017.38 1017.83 1018.30 1018.57 1018.83 1018.98 1019.05 1019.12 1019.27 1019.34 1019.28 1019.29 1018.21 1018.27 1018.86 1018.59 1017.98 1016.95 1016.95 1017.55 1018.59 1019.22 1019.70 1019.98 1020.12 1020.26 1020.42 1020.54
1013.51 1014.03 1014.80 1015.72 1015.91 1015.72 1015.98 1016.75 1016.88 1017.08 1017.23 1017.65 1017.94 1018.02 1017.77 1017.57 1017.98 1018.02 1018.16 1017.80 1018.28 1018.57 1018.09 1018.72 1018.71 1018.08 1017.79 1017.72 1017.76 1017.68 1017.86 1017.46 1016.76 1016.82 1017.82 1018.32 1018.89 1019.31 1019.61 1019.81 1019.93 1020.09 1020.23
1013.36 1013.97 1014.70 1015.52 1015.96 1015.50 1016.06 1016.05 1016.07 1016.20 1016.78 1017.13 1017.48 1018.07 1018.27 1018.06 1018.03 1018.25 1017.53 1017.16 1017.60 1017.28 1017.28 1017.57 1017.45 1017.69 1018.32 1018.28 1018.06 1017.97 1017.83 1017.21 1016.68 1016.64 1017.64 1018.34 1018.51 1018.83 1019.19 1019.40 1019.47 1019.65 1019.84
1013.68 1014.22 1014.64 1015.39 1016.36 1015.93 1016.22 1015.94 1016.00 1016.18 1016.47 1016.49 1016.99 1017.51 1018.05 1017.71 1017.67 1017.78 1017.85 1017.76 1017.24 1017.12 1017.77 1017.54 1017.60 1017.77 1017.89 1018.42 1018.16 1017.96 1017.77 1017.35 1016.75 1016.73 1017.57 1018.07 1018.32 1018.34 1018.67 1018.93 1019.07 1019.13 1019.33
1013.71 1014.33 1014.94 1015.59 1016.01 1016.32 1016.58 1016.43 1016.63 1016.36 1016.07 1016.57 1016.26 1016.60 1017.74 1017.88 1017.59 1017.38 1017.39 1017.47 1017.30 1017.29 1017.07 1017.45 1017.62 1017.45 1017.47 1017.66 1018.01 1017.64 1017.58 1017.37 1017.03 1016.82 1016.77 1017.48 1017.79 1017.83 1017.99 1018.41 1018.60 1018.68 1018.79
1013.77 1014.29 1014.77 1015.38 1015.80 1016.41 1016.50 1016.74 1016.81 1016.21 1016.47 1016.17 1016.21 1016.63 1017.04 1017.45 1017.51 1017.78 1017.26 1016.94 1016.84 1017.28 1017.41 1017.33 1017.75 1017.73 1017.54 1017.36 1017.72 1017.49 1017.12 1017.04 1016.86 1016.77 1016.84 1017.00 1016.98 1017.29 1017.23 1017.59 1018.00 1018.17 1018.36
1013.47 1014.26 1014.72 1015.07 1015.56 1016.15 1016.62 1016.57 1016.62 1016.19 1016.20 1015.98 1015.93 1016.01 1016.63 1017.14 1017.38 1017.44 1016.99 1016.62 1016.34 1016.48 1016.84 1016.73 1017.12 1017.34 1017.24 1017.11 1017.06 1017.15 1016.76 1016.50 1016.30 1016.35 1016.50 1016.15 1016.11 1015.98 1016.87 1016.83 1016.99 1017.30 1017.66
1013.39 1014.26 1014.79 1015.15 1015.48 1015.94 1016.31 1016.35 1016.37 1016.32 1016.47 1016.28 1015.98 1015.95 1016.17 1016.67 1016.92 1017.09 1016.80 1016.39 1016.26 1016.21 1016.11 1016.44 1016.45 1016.46 1016.12 1016.13 1015.98 1016.20 1016.57 1016.44 1015.96 1015.54 1015.62 1015.70 1015.72 1015.87 1015.71 1016.02 1016.40 1016.64 1016.86
1013.25 1014.01 1014.61 1015.10 1015.60 1015.86 1015.96 1016.33 1016.03 1016.10 1015.95 1015.92 1015.92 1015.88 1016.03 1016.23 1016.45 1016.62 1016.45 1016.41 1016.39 1016.32 1016.01 1015.62 1015.86 1015.78 1015.77 1015.95 1015.99 1015.38 1015.68 1016.02 1015.51 1015.10 1015.07 1015.03 1014.90 1014.97 1015.29 1015.00 1015.70 1016.08 1016.16
1012.78 1013.56 1014.24 1014.74 1015.18 1015.71 1016.01 1015.97 1016.05 1015.71 1015.66 1015.43 1015.32 1015.52 1015.94 1016.17 1016.27 1016.25 1016.62 1016.23 1015.99 1016.16 1015.98 1015.86 1015.68 1016.20 1016.07 1015.84 1015.92 1015.76 1014.89 1014.99 1014.92 1014.34 1014.13 1014.15 1014.10 1014.16 1014.36 1014.34 1014.48 1014.51 1014.49
1012.36 1013.07 1013.78 1014.31 1014.82 1015.50 1015.49 1015.51 1015.34 1015.36 1015.07 1015.43 1015.26 1015.40 1015.42 1015.68 1016.11 1016.23 1016.24 1016.22 1016.55 1016.41 1015.65 1016.66 1015.88 1016.03 1015.80 1015.48 1015.53 1015.70 1015.24 1014.21 1013.65 1013.10 1012.94 1013.01 1013.08 1013.18 1013.33 1013.53 1013.67 1013.98 1014.07
1011.73 1012.57 1013.22 1013.92 1014.33 1014.90 1015.07 1015.00 1015.30 1015.57 1015.44 1015.02 1014.90 1015.30 1015.48 1015.27 1015.40 1015.79 1015.75 1015.60 1015.71 1016.01 1016.23 1015.83 1015.29 1015.45 1015.30 1015.22 1014.75 1014.98 1014.42 1013.16 1012.20 1011.78 1011.62 1011.78 1012.11 1012.51 1012.47 1012.50 1012.67 1012.94 1013.30
1010.90 1011.71 1012.61 1013.42 1013.96 1014.36 1014.72 1014.80 1014.71 1014.66 1014.48 1014.24 1014.57 1014.77 1015.06 1014.62 1014.60 1014.54 1014.72 1014.83 1014.95 1014.88 1014.79 1014.68 1014.48 1014.50 1014.71 1014.99 1014.85 1013.54 1013.84 1013.50 1012.84 1011.97 1011.05 1011.04 1011.49 1012.02 1012.10 1011.96 1011.82 1011.78 1012.14
1010.15 1010.84 1011.79 1012.94 1013.62 1013.90 1014.28 1014.71 1014.51 1014.64 1014.11 1013.75 1014.17 1014.38 1014.29 1014.23 1014.00 1014.21 1013.97 1013.92 1014.12 1014.30 1014.40 1014.30 1014.12 1013.93 1013.65 1013.72 1013.82 1013.85 1012.88 1013.21 1013.45 1013.27 1011.81 1010.78 1010.33 1010.57 1010.92 1011.27 1011.40 1011.21 1011.21
1009.63 1010.37 1011.17 1012.45 1013.30 1013.79 1014.12 1014.38 1014.61 1014.73 1014.75 1014.58 1014.61 1014.73 1014.00 1013.80 1013.66 1013.45 1013.32 1013.60 1013.74 1013.84 1013.95 1013.80 1013.68 1013.57 1013.48 1013.21 1013.04 1013.01 1012.98 1013.03 1012.48 1012.47 1011.88 1011.04 1010.08 1009.34 1009.72 1010.16 1010.33 1010.41 1010.40
Wind_Speed
7 3 11 8 14 17 17 17 17 16 16 15 14 14 14 14 14 14 13 12 11 12 11 13 12 12 13 14 12 14 13 12 11 13 15 14 11 9 7 6 13 15 13
11 8 9 9 14 16 15 16 15 15 15 15 13 13 12 12 13 12 12 13 11 12 13 13 15 13 13 13 11 12 12 11 10 12 15 15 12 9 11 10 15 13 12
13 14 14 12 16 18 14 16 15 15 14 14 13 12 12 11 13 12 11 12 14 14 13 13 14 13 12 11 11 9 11 8 6 10 15 13 11 8 11 13 12 11 11
15 15 16 13 16 16 15 15 13 14 13 13 12 12 11 11 12 12 13 12 12 14 13 12 13 13 13 11 11 7 9 4 4 7 10 12 12 9 11 11 10 8 9
12 14 18 16 16 17 17 13 12 12 12 12 12 11 12 12 12 12 11 12 12 13 12 12 11 13 12 10 13 9 6 3 8 13 6 7 11 10 9 10 11 9 4
13 12 17 16 16 16 15 13 12 13 12 12 11 11 11 12 12 10 11 11 12 11 11 11 11 12 11 10 12 9 4 7 11 8 7 8 14 9 5 9 10 10 9
8 17 16 14 14 15 13 12 12 12 12 12 12 13 12 12 11 11 11 10 9 10 9 11 10 9 9 8 5 5 6 9 12 9 3 12 11 7 4 8 8 9 7
14 12 16 13 13 12 12 12 12 11 11 12 11 12 11 11 10 10 10 9 8 8 10 9 8 7 6 5 4 4 6 9 9 5 4 12 11 6 4 5 5 7 7
13 15 14 14 13 13 12 10 11 10 10 9 10 10 9 9 8 9 9 8 8 6 7 6 5 4 3 3 3 3 7 12 12 8 4 10 12 8 5 4 3 3 5
9 15 12 13 12 12 13 11 11 11 10 9 8 8 7 8 9 10 9 7 6 5 4 3 3 2 1 2 3 5 9 14 14 11 6 10 12 7 7 4 3 2 2
11 8 10 13 11 11 11 11 11 12 11 10 9 7 9 9 11 12 10 8 5 5 4 4 4 2 4 9 9 8 10 7 12 1 9 15 12 8 6 6 5 4 3
15 13 12 10 13 13 11 11 10 11 10 9 9 8 8 4 5 4 8 9 9 8 9 8 6 5 8 7 9 11 5 5 3 2 8 14 12 9 7 6 6 6 5
15 12 14 13 13 14 11 9 9 6 6 6 7 5 6 0 5 6 6 8 6 11 7 9 9 9 3 5 4 5 3 9 3 4 11 14 12 11 10 9 8 8 8
11 14 11 14 4 7 7 8 7 6 6 6 8 7 6 4 4 5 5 5 4 6 5 4 5 2 4 7 6 7 9 8 3 2 6 10 13 12 11 12 11 10 10
11 10 10 11 8 2 5 4 2 4 6 6 5 8 7 7 5 4 5 6 7 3 4 4 5 3 3 5 7 7 9 10 11 3 3 10 12 13 12 13 13 12 12
11 12 11 9 10 8 7 3 4 5 3 5 5 7 9 7 5 7 7 7 7 7 2 4 5 4 6 5 8 7 9 9 10 8 3 5 14 14 14 15 15 14 14
10 10 11 10 11 9 8 7 6 5 6 6 7 5 6 7 7 8 9 7 7 5 9 4 6 6 6 7 7 8 8 10 10 10 9 7 8 15 17 17 16 15 15
11 10 9 9 10 10 8 6 7 7 7 7 6 6 9 9 9 8 9 9 9 7 7 6 7 8 9 9 7 6 6 9 10 11 10 9 7 8 14 19 20 19 17
11 11 10 9 9 10 10 9 8 8 6 8 7 7 8 9 10 9 10 10 7 9 8 7 8 9 8 6 8 8 6 9 11 11 12 12 12 8 8 18 20 19 19
12 12 11 9 9 9 7 7 7 6 7 8 8 8 8 8 10 9 11 11 9 10 10 10 6 9 8 8 9 10 8 8 11 11 12 12 13 12 13 12 11 11 21
13 12 11 11 10 7 8 8 8 7 4 7 7 8 8 9 10 9 8 11 10 11 11 10 6 8 9 12 6 8 10 10 14 12 12 12 13 12 13 12 8 9 11
13 12 12 11 10 7 8 7 4 4 5 1 3 3 5 8 10 11 10 11 9 1 10 14 11 9 10 10 7 3 5 10 13 15 12 11 14 11 12 14 13 12 11
13 12 11 11 10 10 11 6 5 5 7 7 6 6 6 10 10 11 12 12 12 8 11 13 10 13 10 10 13 7 5 9 9 5 10 11 8 9 12 11 11 13 14
14 13 12 11 10 10 10 8 7 7 7 7 5 4 7 9 10 11 11 11 10 11 9 11 12 13 11 10 11 10 13 12 11 11 9 8 9 9 10 9 10 13 13
14 13 12 11 10 8 10 9 7 9 7 5 4 6 8 9 12 12 13 12 10 8 10 12 13 12 12 10 10 12 10 9 11 11 12 11 10 11 11 11 11 10 11
14 13 12 12 9 9 9 9 8 5 5 6 8 8 9 10 11 10 9 9 10 9 11 11 12 13 12 13 11 9 10 9 12 10 12 13 14 10 11 9 10 10 10
Wind_Direction
86 87 127 130 116 114 112 109 108 109 110 105 105 104 101 93 96 102 102 106 110 110 102 93 97 97 99 100 101 97 95 96 99 103 108 102 93 88 81 114 138 103 103
139 134 124 139 118 105 112 109 108 110 112 110 110 106 100 93 95 95 102 96 102 104 98 106 98 91 85 86 91 107 109 109 113 123 119 105 97 78 69 81 69 100 103
141 143 154 162 130 128 128 118 117 114 113 112 109 107 100 98 99 98 103 112 106 102 95 85 92 96 94 95 94 94 95 107 157 164 172 108 102 89 74 77 87 92 108
156 151 138 154 141 135 128 122 120 117 110 110 110 108 108 105 99 100 88 89 98 99 96 100 103 106 103 105 104 102 106 132 252 240 237 123 102 109 100 95 96 103 103
157 143 121 145 143 138 136 139 119 111 107 108 111 109 110 106 98 96 96 90 86 92 100 105 105 98 91 81 81 65 56 305 276 274 77 72 105 105 120 123 124 109 101
129 139 132 142 146 139 138 131 122 115 111 110 112 114 109 102 97 101 93 98 101 99 103 107 109 99 99 92 89 73 38 312 302 88 115 109 70 104 106 92 97 92 95
139 119 131 145 144 140 138 130 126 121 118 115 116 110 104 89 84 81 82 86 103 106 110 108 108 106 95 92 70 44 354 313 290 92 41 86 93 113 133 109 115 115 115
124 127 131 129 136 140 142 137 137 133 122 117 110 105 104 100 93 89 86 86 92 100 108 108 110 103 93 78 63 33 346 306 282 79 147 93 111 109 82 93 101 123 127
127 121 137 138 138 141 145 154 149 139 131 120 117 113 113 108 102 99 91 88 93 98 105 111 114 103 80 52 19 359 307 290 283 97 226 119 136 143 142 141 142 134 136
147 129 126 139 155 157 151 149 150 150 148 138 129 130 142 151 153 135 128 110 108 111 111 120 131 120 97 290 280 288 280 286 264 128 197 114 138 149 160 166 182 192 131
130 136 126 141 141 154 157 149 154 156 156 156 162 173 207 216 170 132 107 129 134 150 168 173 187 207 257 240 230 238 273 282 237 67 98 134 137 163 184 185 190 199 195
140 147 143 149 146 160 158 157 174 166 181 193 195 179 239 86 30 79 136 161 176 188 195 194 194 205 238 247 193 214 244 248 270 158 114 137 151 175 200 207 203 205 213
144 154 146 139 169 186 119 174 174 169 181 193 203 208 245 54 191 212 147 192 185 212 192 190 192 215 298 325 306 295 343 240 216 257 130 147 166 184 204 214 211 213 218
153 135 169 136 192 183 156 200 166 174 195 202 194 205 263 221 224 273 286 287 170 243 174 219 241 86 270 293 272 279 261 273 258 347 76 170 175 187 206 216 215 215 221
156 143 145 146 165 125 198 189 237 248 181 199 205 188 249 248 244 260 262 273 291 3 279 289 213 233 246 257 279 254 251 272 288 259 211 204 192 188 203 217 221 217 222
160 154 153 167 164 170 203 238 184 225 206 258 235 199 188 261 255 264 227 239 247 271 202 189 258 276 226 211 260 238 255 256 264 271 243 262 193 193 194 213 221 221 224
166 167 164 175 173 189 199 199 230 246 217 264 222 230 232 222 232 275 287 279 272 221 280 263 260 286 249 253 230 274 269 243 252 256 261 229 206 203 195 200 215 220 224
167 176 179 182 177 189 181 226 242 230 258 243 261 256 200 229 243 262 258 252 253 224 238 243 241 239 213 211 221 254 269 251 247 247 240 255 239 255 204 202 204 210 215
173 174 185 186 194 194 197 216 225 245 248 268 267 249 235 233 244 247 260 267 262 258 247 210 246 214 255 263 250 199 226 267 263 248 241 248 248 245 249 199 205 209 210
174 182 192 190 203 200 217 216 251 243 239 242 249 259 270 256 249 249 254 259 269 265 257 251 243 254 263 249 261 287 199 234 249 245 247 251 250 231 238 252 195 217 217
181 185 192 197 190 198 205 203 224 234 233 246 237 243 256 256 261 266 255 274 264 247 267 291 256 250 252 261 218 259 270 219 250 248 243 242 249 241 242 244 231 242 214
184 193 194 207 194 190 210 236 246 236 233 201 248 293 248 256 267 264 259 262 262 251 271 280 268 256 245 251 261 212 263 262 220 233 227 229 239 245 236 235 234 233 253
192 191 198 200 206 197 234 210 233 257 247 246 257 281 290 266 269 268 264 265 265 245 240 249 254 252 253 269 252 214 226 233 256 233 221 229 232 250 241 240 241 221 223
190 187 189 195 198 202 209 237 259 284 306 323 307 339 285 269 274 263 256 269 271 283 281 262 256 254 247 236 263 238 227 271 274 279 251 208 203 222 253 255 253 224 220
187 182 175 180 190 217 197 238 228 219 256 312 319 286 258 260 248 261 256 257 259 266 277 271 268 259 258 254 236 247 268 241 239 256 261 266 231 216 222 214 235 251 239
183 184 174 167 189 197 201 202 223 287 284 307 339 308 301 325 310 299 320 338 329 292 278 282 282 274 266 266 261 245 236 244 241 226 245 253 261 257 216 223 209 216 225